Regional Weather Roundup
Issued by NWS

Home | Current Version | Previous Version | Graphics & Text | Print | Product List | Glossary On
Versions: 1 2 3 4 5 6 7 8 9 10 11 12 13 14 15 16 17 18 19 20 21 22 23 24 25 26 27 28 29 30 31 32 33 34 35 36 37 38 39 40 41 42 43 44 45 46 47 48 49 50
000
ASUS45 KSLC 261610
RWRUT

UTAH REGIONAL WEATHER ROUNDUP
NATIONAL WEATHER SERVICE SALT LAKE CITY UT
1000 AM MDT SUN APR 26 2015

UTZ001>011-023>025-261700-

NORTHERN UTAH

CITY           SKY/WX    TMP DP  RH WIND       PRES   REMARKS
BRIGHAM CITY   CLOUDY    43  33  69 E5        29.95R
HILL AFB       PTSUNNY   42  38  86 N13       29.94R
LOGAN          LGT RAIN  39  34  82 N14       29.95R WCI  31
OGDEN          CLOUDY    43  34  70 N13       29.93R
PROVO AIRPORT  PTSUNNY   43  36  75 W22G29    29.92R
SALT LAKE CITY PTSUNNY   43  35  73 N7        29.95R
VERNAL         CLOUDY    47  40  76 CALM      29.79R
WENDOVER       SUNNY     46  21  36 NW22G30   29.98R
HEBER CITY     CLOUDY    37  34  87 CALM      29.89R
WEST JORDAN    PTSUNNY   41  39  93 N5        29.96R

$$

UTZ012>022-026-027-261700-

SOUTHERN/CENTRAL UTAH

CITY           SKY/WX    TMP DP  RH WIND       PRES   REMARKS
BLANDING       PTSUNNY   44  39  83 CALM      29.86S
BRYCE CANYON   PTSUNNY   35  28  75 NW21G28   29.86R WCI  24
CEDAR CITY     CLOUDY    39  34  82 NE12      29.93R WCI  32
DELTA          PTSUNNY   43  31  63 NW23      29.95R
HANKSVILLE     CLOUDY    50  34  53 CALM      29.80R
MILFORD        MOSUNNY   45  30  55 N22G29    29.94R
MOAB/CYNLANDS  PTSUNNY   50  43  77 W8        29.76R
PRICE          NOT AVBL
ST GEORGE      CLOUDY    54  39  58 S12       29.89F
KANAB          PTSUNNY   46  37  71 S7        29.89R

$$

REGIONAL REPORTS     COLORADO/ARIZONA

CITY           SKY/WX    TMP DP  RH WIND       PRES   REMARKS
CRAIG, CO      PTSUNNY   50  37  61 CALM      29.77F
GRAND JUNCTION LGT RAIN  43  40  89 NE9       29.79R
RIFLE          CLOUDY    47  40  76 CALM      29.76S
MONTROSE       LGT RAIN  42  41  96 N10       29.79S
CORTEZ         CLOUDY    43  38  82 CALM      29.78S
PAGE, AZ       SUNNY     55  34  45 N13       29.79R
GRAND CANYON   CLOUDY    38  36  92 VRB5      29.85R WCI  34
KINGMAN        PTSUNNY   52  38  58 N12G20    29.90R
FLAGSTAFF      PTSUNNY   39  34  82 NW10G17   29.84R WCI  32

$$

REGIONAL REPORTS    NEVADA/IDAHO/WYOMING

CITY           SKY/WX    TMP DP  RH WIND       PRES   REMARKS
LAS VEGAS, NV  MOSUNNY   62  28  27 NW17G28   29.88R
ELY            SUNNY     40  21  46 NW15      30.01R WCI  32
ELKO           SUNNY     41  22  46 N12       30.07R
POCATELLO, ID  CLOUDY    39  29  67 SW23      29.98R WCI  28
BURLEY         SUNNY     42  26  53 W17G31    29.99R
EVANSTON, WY   CLOUDY    32  31  96 SW9       29.88R WCI  24
ROCK SPRINGS   CLOUDY    44  33  65 MISG      29.82R
KEMMERER       CLOUDY    36  32  87 W18       29.85R WCI  25

$$


USA.gov is the U.S. government's official web portal to all federal, state and local government web resources and services.